P/2004 V5 - B (LINEAR-Hill)

Epoch 2005 Mar. 11.0 TT = JDT 2453440.5  

T 2005 Mar. 1.01772 TT                                  Nakano

q   4.4109009            (2000.0)            P               Q

n   0.04396083     Peri.   87.69524     -0.67202752     -0.69854692

a   7.9510676      Node    47.85907     +0.47593020     -0.66170587

e   0.4452442      Incl.   19.35827     +0.56733539     -0.27235556

P  22.42 (+/- 0.01 day)

From 431 observations 2004 Nov. 10-2006 May 25, mean residual 0".62.

Residuals in seconds of arc 

2004/                     050101 J76  0.3+  1.1-    050302 G92  0.4+  0.2+  

041110 703  1.4-  0.7+    050101 213  0.0   0.1-    050302 G92  0.2-  0.0   

041110 703  0.4-  0.6-    050101 213  0.2+  0.2-    050303 A32  0.2-  0.3-  

041110 703  1.4-  0.3+    050102 213  0.3+  0.2-    050303 A32  0.3-  0.0   

041110 703  0.1+  0.7-    050104 215  0.2-  0.4-    050303 A32  0.8-  0.5+  

041111 J95  0.1-  0.4-    050104 215  0.7-  0.2-    050304 213  1.6-  0.6-  

041111 J95  0.8+  1.4-    050104 215  1.2-  0.2+    050304 213  1.2-  0.7-  

041112 360  0.5+  0.1-    050105 204  0.0   0.1+    050304 213  0.6-  0.8-  

041112 360  0.2-  0.5-    050105 204  0.2-  0.1+    050305 132  1.4-  0.5+  

041112 360  0.6-  0.2-    050105 204  0.2+  0.1-    050305 132 (1.1-  2.1-) 

041112 J87  0.7+  1.4+    050105 349  0.8-  0.5+    050305 132  0.3-  0.7-  

041113 J87  0.8-  0.6+    050105 349  0.5-  0.0     050305 132  1.0-  0.1-  

041113 J87  0.3-  0.3-    050105 349  0.4-  0.2-    050305 132  0.8-  0.8-  

041113 J95  0.7-  0.2-    050105 213  0.0   0.1-    050305 132  0.2+  1.1-  

041113 J95  1.0-  0.8-    050105 213  0.1+  0.1+    050305 A02  0.4-  0.9-  

041113 J95  1.6-  0.1-    050105 213  0.0   0.1-    050305 A02  0.7-  0.9-  

041113 J95  0.1-  0.7-    050107 213  0.0   0.1-    050305 A02  0.6-  1.1-  

041114 J95  0.4-  0.2+    050107 213  0.0   0.1+    050306 360  0.1+  0.1-  

041114 J95  0.7-  0.3+    050107 213  0.3-  0.4+    050306 360  0.3+  0.3-  

041116 349  0.2-  0.2+    050107 213  0.1-  0.3+    050307 372  0.6-  0.4-  

041116 349  0.1+  0.2+    050108 246  0.9+  0.0     050307 372  1.4-  0.9-  

041116 349  0.1-  0.4+    050108 246  1.0+  0.0     050307 212  0.9+  0.6-  

041116 D70  0.9+  0.2-    050108 246  0.6+  0.1-    050307 212  1.0+  0.4-  

041117 213  0.2+  0.2-    050108 246  0.2+  0.0     050307 A32  1.3+  0.8-  

041117 213  0.6-  0.0     050108 246  0.0   0.3-    050307 212 (4.0-  2.3-) 

041117 204  0.6+  0.0     050109 A02  0.8-  0.2-    050307 A32  0.9-  0.3-  

041117 213  0.0   0.3-    050109 A02  0.3-  0.3-    050307 A32  0.7-  0.1+  

041117 204  0.3+  0.1+    050109 A02  0.1+  0.1+    050307 A32  0.3+  0.3-  

041117 204  0.3+  0.0     050111 561  0.5+  0.0     050309 850  0.5-  0.6-  

041119 372  1.4+  0.8+    050111 561  0.5+  0.0     050309 850  0.7-  0.9-  

041119 D74 (2.1+  0.8+)   050111 561  0.7+  0.1+    050309 213  0.1+  0.1-  

041119 D74  1.9+  0.7+    050111 561  0.7+  0.2+    050309 213  0.3+  0.2-  

041120 213  0.6-  1.2+    050111 561  0.9+  0.1+    050309 A32  0.2-  1.0-  

041120 213  0.5-  0.8+    050111 561  0.9+  0.2+    050309 A32  0.2-  0.5-  

041120 A02  0.7-  1.7+    050113 213  0.4-  0.4-    050309 A32  1.1-  0.6-  

041120 A02  0.4-  1.0+    050113 213  0.3-  0.5-    050309 A32  1.0-  0.7-  

041120 A02  0.0   0.5+    050113 213  0.3-  0.5-    050312 A02  0.2+  0.2-  

041120 349  0.9-  1.6+    050115 699  0.3-  0.2-    050312 A02  1.7-  1.1-  

041120 372  0.6+  0.7+    050115 699  0.5-  0.1-    050312 A02  0.2-  0.5-  

041120 349  1.4-  1.4+    050115 699  1.6-  0.0     050312 A02  0.1+  0.5-  

041120 349  1.4-  1.8+    050115 699  0.8-  0.0     050312 A02  0.2-  0.8-  

041121 130  1.2+  0.1-    050115 704  0.9+  0.5+    050313 A30  0.8-  1.1-  

041121 130  1.2+  0.3-    050115 704  0.3+  0.6+    050313 A30  0.9-  1.0-  

041121 A02  0.7-  0.3+    050115 704  0.3-  0.4+    050313 A30  0.6-  1.0-  

041121 A32  0.6-  0.9-    050115 704  0.5+  0.2+    050313 A30  0.3-  0.9-  

041121 A32  0.8-  1.7-    050115 704  0.1+  0.6+    050313 A30  0.4+  1.2-  

041121 A32 (2.1-  0.7-)   050115 246  0.9+  0.1+    050316 213  0.6+  0.0   

041121 A32  0.1+  1.0-    050115 246  0.5+  0.1+    050316 213  0.7+  0.2+  

041121 A32  1.1-  0.7-    050115 246  0.4+  0.2+    050316 213  1.0+  0.3+  

041123 372  1.4-  0.9+    050115 246  0.5+  0.2+    050317 143  0.1-  0.6-  

041201 J95  0.2+  0.5-    050115 246  0.4+  0.4+    050317 143  0.3-  0.5-  

041201 J95  1.1+  1.1+    050115 246  0.7+  0.2+    050317 143  0.3-  0.7-  

041202 349  0.0   1.2-    050116 246  0.3+  0.0     050318 143  0.1-  0.5-  

041202 349  0.2-  1.0-    050116 246  0.6+  0.1-    050318 143  0.0   0.3-  

041202 349  0.1-  1.0-    050116 246  0.1+  0.0     050318 143  0.0   0.6-  

041203 J95  0.6+  0.8-    050116 246  0.1+  0.1-    050318 143  0.0   0.5-  

041203 J95  0.3-  0.1+    050116 246  0.8+  0.2-    050319 143  0.4-  0.1-  

041205 246  0.2-  0.1+    050117 372  0.6+  1.8-    050319 143  0.2+  0.3-  

041205 246  0.2-  0.0     050120 349  0.4-  0.3-    050319 143  0.1-  0.8-  

041205 246  0.3-  0.2-    050120 349  0.6-  0.2-    050319 143  0.0   0.5-  

041205 246  0.0   0.2+    050120 349  0.3-  0.2-    050328 213  0.3-  1.5-  

041205 246  0.5-  0.1-    050121 213  0.6-  0.3+    050328 213  0.2-  1.2-  

041205 246  0.3+  0.1+    050121 213  0.6-  0.3+    050328 213  0.4-  1.1-  

041205 246  0.4+  0.2+    050121 213  0.6-  0.2+    050330 360  0.2-  0.1-  

041205 A32  0.2-  1.0+    050129 561  0.7+  0.6+    050330 360  0.2+  0.1-  

041205 A32  0.4-  1.0+    050129 561  0.5+  0.4+    050401 A32  0.3-  0.2-  

041208 246  0.2+  0.3-    050129 561  0.3+  0.9+    050401 A32  0.3+  0.1+  

041208 246  0.2+  0.5-    050129 213  1.1+  0.6+    050401 A32  0.6-  0.3-  

041208 246  0.2+  0.0     050129 213  1.0+  0.5+    050402 215  0.7+  0.7-  

041208 246  0.2+  0.0     050129 213  0.8+  0.3+    050403 A41  0.8-  0.6+  

041208 246  0.3+  0.2-    050130 561  0.3+  1.4+    050403 A41  0.1+  0.4-  

041208 246  0.1+  0.1-    050130 561  0.4+  0.4-    050403 A32  0.2-  0.3-  

041208 246  0.5+  0.0     050131 704  1.5+  0.0     050403 A32  0.0   0.6-  

041208 246  0.3+  0.3-    050131 704  0.6+  1.0+    050403 A41  0.0   0.3-  

041208 850  0.3-  0.0     050131 704  0.2-  0.5+    050403 A32  0.4+  0.4-  

041208 850  0.1-  0.2+    050131 704  0.5+  0.2+    050404 400  0.5-  0.8-  

041208 850 (3.9+  0.1+)   050131 704  0.6+  0.2+    050404 400  0.2-  0.9-  

041208 372  0.5+  1.3+    050131 213  0.4-  0.2+    050404 400  0.5-  1.0-  

041208 372  0.1-  0.4+    050131 213  0.2-  0.2+    050423 A32  0.6+  0.4-  

041209 246  0.0   0.3+    050131 213  0.2-  0.2+    050423 A32  0.2+  0.8-  

041209 246  0.0   0.4+    050202 372  0.9+  0.4-    050424 213  0.3+  0.2-  

041209 246  0.1-  0.4+    050202 213  0.1+  1.0+    050424 213  0.1+  0.3-  

041209 246  0.2-  0.3+    050202 213  0.1+  0.6+    050424 213  0.2-  0.2-  

041209 246  0.2-  0.5+    050202 213  0.1-  0.4+    050427 360  0.1+  0.5+  

041209 246  0.3-  0.5+    050205 360  0.3+  0.1-    050427 360  0.4-  0.1+  

041209 246  0.0   0.5+    050205 360  0.0   0.1-    050428 J78  0.1+  0.3+  

041210 372 (2.0+  0.4-)   050206 246  0.1+  0.0     050429 A30  0.0   0.2-  

041210 372 (2.6+  0.9-)   050206 246  0.4-  1.4+    050429 A30  0.1-  0.3-  

041211 213  0.5+  0.7+    050206 246  0.4-  1.0+    050429 A30  0.2-  0.4-  

041211 213  0.5+  0.6+    050206 246  0.3-  1.3+    050429 A30  0.3-  0.4-  

041211 213  0.5+  0.8+    050206 246  0.2-  0.4+    050429 A30  0.2-  0.6-  

041211 J78  0.8-  0.0     050206 246  0.2-  1.5+    050430 D83  0.2-  0.2+  

041211 246  0.2+  0.3+    050209 213  0.6-  0.0     050430 D83  0.1-  1.2-  

041211 246  0.1-  0.0     050209 213  0.6-  0.1-    050505 703  0.3-  1.8+  

041211 246  0.0   0.1+    050209 213  0.3-  0.3-    050505 703  0.2+  1.0+  

041211 246  0.0   0.1+    050211 918  0.2-  0.4+    050505 703  0.2-  0.5-  

041211 246  0.5+  0.2+    050211 918  0.3+  0.0     050505 703  1.5+  0.4+  

041211 246  0.6+  0.3+    050211 918  0.6+  0.0     050506 212  0.8+  1.2-  

041211 246  0.9+  0.4+    050211 J78  0.4-  0.6+    050506 212  0.9-  1.1+  

041211 246 (3.5+  3.3+)   050212 213  0.3-  0.3+    050506 212  0.8-  0.3-  

041211 170  0.1+  0.1+    050212 J78  0.0   0.2+    050507 349  0.2+  0.4-  

041211 170  0.4+  0.2-    050212 213  0.0   0.5+    050507 349  0.7+  0.2-  

041211 170  0.5+  0.3-    050212 213  0.9-  0.5-    050507 349  1.2+  0.2-  

041211 170  0.4+  0.2-    050213 A02  1.9+  0.1-    050507 A02 (2.3+  0.2-) 

041211 349  0.1+  0.5+    050213 A02  0.6-  0.3-    050507 A02  1.2+  1.0+  

041211 349  0.6-  0.3+    050213 A02  0.6-  0.7-    050507 A02  0.3+  1.7+  

041213 213  0.2+  0.1-    050213 360  0.2-  0.2+    050511 561  0.1+  0.3+  

041214 213  0.4+  0.1-    050213 360  0.0   0.0     050511 561  0.7+  0.2+  

041214 213  0.6+  0.2+    050213 349  0.4-  0.8-    050511 561  1.1-  0.3+  

041214 246  0.3+  0.2+    050213 349  0.2-  0.5-    050511 561  0.8+  0.2-  

041214 246  0.6+  0.0     050213 349  0.1+  0.5-    050511 561  0.5-  0.7+  

041214 246  0.6+  0.1-    050214 704  0.3+  0.2+    050511 561  1.4+  0.2-  

041214 246  0.4+  0.2-    050214 704  0.4+  1.4+    050519 213  0.7-  0.1-  

041214 246  0.0   0.0     050214 704  0.3+  1.0+    050519 213  0.2-  0.0   

041214 246  0.4+  0.0     050214 704  0.2+  0.5-    050519 213  0.4-  0.2-  

041215 246  0.2+  0.1-    050214 704  0.4+  0.2-    051112 557  1.7-  0.3+  

041215 246  0.4+  0.2-    050214 213  0.3-  0.1+    051112 557  0.7+  0.9-  

041215 246  0.5+  0.2+    050214 213  0.1-  0.2+    051112 557  0.2+  0.7-  

041215 246  0.6+  0.3+    050214 213  0.3+  0.1+    051112 557  0.1-  0.3-  

041215 372  0.3-  0.6-    050214 213  1.1-  0.5-    051112 557  0.6-  0.6+  

041216 246  0.6+  0.5+    050214 A30  0.8-  0.5-    051112 557  0.9-  0.0   

